Location: Härggis
(46.9540°N, 8.4897°E)
Time: 02:13:09
(UTC+00:00)

Cosmos 332 Rocket - Pass Details

Date: 27 May 2022
Orbit: 681 x 703 km, 74.0° (Epoch: 26 June)

Event Time Altitude Azimuth Distance (km) Brightness Sun altitude
Exits shadow 01:08:18 30° 236° (SW) 1,222 4.6 -17.8°
Maximum altitude 01:10:23 51° 297° (WNW) 855 4.2 -17.6°
Drops below altitude 10° 01:15:04 10° 13° (NNE) 2,134 7.5 -17.3°
Sets 01:17:27 0° 19° (NNE) 3,054 8.8 -17.1°
